Location: Casteau
(50.5142°N, 4.0161°E)
Time: 05:26:17
(UTC+00:00)

USA 116 - Pass Details

Date: 18 September 2020
Orbit: 405 x 834 km, 97.9° (Epoch: 18 November)

Event Time Altitude Azimuth Distance (km) Brightness Sun altitude
Rises 18:16:57 0° 19° (NNE) 2,416 6.9 -5.1°
Reaches altitude 10° 18:18:56 10° 26° (NNE) 1,580 5.9 -5.4°
Maximum altitude 18:22:11 45° 101° (E) 655 3.7 -5.9°
Drops below altitude 10° 18:25:45 10° 175° (S) 1,732 6.1 -6.4°
Sets 18:28:01 0° 182° (S) 2,684 7.1 -6.8°
